Time,TemperatureF,DewpointF,PressureIn,WindDirection,WindDirectionDegrees,WindSpeedMPH,WindSpeedGustMPH,Humidity,HourlyPrecipIn,Conditions,Clouds,dailyrainin,SoftwareType,DateUTC
2019-11-20 00:00:00,35.4,33.9,30.08,SSW,207,0,0,94,0,RA,FEW,0,WeatherDisplay:10.37,2019-11-19 23:00:00,
2019-11-20 00:05:00,35.6,34.4,30.07,SSW,207,0,0,95,0,CLR,FEW,0,WeatherDisplay:10.37,2019-11-19 23:05:00,
2019-11-20 00:10:00,35.7,34.1,30.08,SSW,207,0,0,94,0,CLR,FEW,0,WeatherDisplay:10.37,2019-11-19 23:10:00,
2019-11-20 00:15:00,35.7,34.1,30.07,SSW,207,0,0,94,0,CLR,FEW,0,WeatherDisplay:10.37,2019-11-19 23:15:00,
2019-11-20 00:20:00,35.7,34.1,30.07,SSW,207,0,0,94,0,CLR,FEW,0,WeatherDisplay:10.37,2019-11-19 23:20:00,
2019-11-20 00:25:00,35.6,34,30.07,SSW,207,0,0,94,0,CLR,FEW,0,WeatherDisplay:10.37,2019-11-19 23:25:00,
2019-11-20 00:30:00,35.4,33.9,30.07,SSW,207,0,0,94,0,CLR,FEW,0,WeatherDisplay:10.37,2019-11-19 23:30:00,
2019-11-20 00:35:00,35.3,33.7,30.07,SSW,207,0,0,94,0,CLR,FEW,0,WeatherDisplay:10.37,2019-11-19 23:35:00,
2019-11-20 00:40:00,35.1,33.6,30.07,SSW,207,0,0,94,0,CLR,FEW,0,WeatherDisplay:10.37,2019-11-19 23:40:00,
2019-11-20 00:45:00,35,33.4,30.07,SSW,207,0,0,94,0,CLR,FEW,0,WeatherDisplay:10.37,2019-11-19 23:45:00,
2019-11-20 00:50:00,34.8,33.2,30.07,SSW,207,0,0,94,0,CLR,FEW,0,WeatherDisplay:10.37,2019-11-19 23:50:00,
2019-11-20 00:55:00,34.6,33.1,30.07,SSW,207,0,0,94,0,CLR,FEW,0,WeatherDisplay:10.37,2019-11-19 23:55:00,
2019-11-20 01:00:00,34.4,32.9,30.07,SSW,207,0,0,94,0,CLR,FEW,0,WeatherDisplay:10.37,2019-11-20 00:00:00,
2019-11-20 01:05:00,34.3,32.7,30.07,SSW,207,0,0,94,0,CLR,FEW,0,WeatherDisplay:10.37,2019-11-20 00:05:00,
2019-11-20 01:10:00,34,32.5,30.07,SSW,207,0,0,94,0,CLR,FEW,0,WeatherDisplay:10.37,2019-11-20 00:10:00,
2019-11-20 01:15:00,33.8,32.3,30.07,SSW,207,0,0,94,0,CLR,FEW,0,WeatherDisplay:10.37,2019-11-20 00:15:00,
2019-11-20 01:20:00,33.8,32.3,30.07,SSW,207,0,0,94,0,CLR,FEW,0,WeatherDisplay:10.37,2019-11-20 00:20:00,
2019-11-20 01:25:00,33.8,32.3,30.07,SSW,207,0,0,94,0,CLR,FEW,0,WeatherDisplay:10.37,2019-11-20 00:25:00,
2019-11-20 01:30:00,33.7,32.2,30.07,SSW,207,0,0,94,0,CLR,FEW,0,WeatherDisplay:10.37,2019-11-20 00:30:00,
2019-11-20 01:35:00,33.7,32.2,30.07,SSW,207,0,0,94,0,CLR,FEW,0,WeatherDisplay:10.37,2019-11-20 00:35:00,
2019-11-20 01:40:00,33.7,32.2,30.07,SSW,207,0,0,94,0,CLR,FEW,0,WeatherDisplay:10.37,2019-11-20 00:40:00,
2019-11-20 01:45:00,33.7,32.1,30.07,SSW,207,0,0,94,0,CLR,FEW,0,WeatherDisplay:10.37,2019-11-20 00:45:00,
2019-11-20 01:50:00,33.6,32.1,30.07,SSW,207,0,0,94,0,CLR,FEW,0,WeatherDisplay:10.37,2019-11-20 00:50:00,
2019-11-20 01:55:01,33.5,32,30.07,SSW,207,0,0,94,0,CLR,FEW,0,WeatherDisplay:10.37,2019-11-20 00:55:01,
2019-11-20 02:00:00,33.3,31.8,30.07,SSW,207,0,0,94,0,CLR,FEW,0,WeatherDisplay:10.37,2019-11-20 01:00:00,
2019-11-20 02:05:00,33.2,31.7,30.07,SSW,207,0,0,94,0,CLR,FEW,0,WeatherDisplay:10.37,2019-11-20 01:05:00,
2019-11-20 02:10:00,33.1,31.5,30.07,SSW,207,0,0,94,0,CLR,FEW,0,WeatherDisplay:10.37,2019-11-20 01:10:00,
2019-11-20 02:15:00,32.9,31.4,30.07,SSW,207,0,0,94,0,CLR,FEW,0,WeatherDisplay:10.37,2019-11-20 01:15:00,
2019-11-20 02:20:00,32.8,31.3,30.07,SSW,207,0,0,94,0,CLR,FEW,0,WeatherDisplay:10.37,2019-11-20 01:20:00,
2019-11-20 02:25:00,32.8,31.5,30.07,SSW,207,0,0,95,0,CLR,FEW,0,WeatherDisplay:10.37,2019-11-20 01:25:00,
2019-11-20 02:30:00,32.7,31.5,30.07,SSW,207,0,0,95,0,CLR,FEW,0,WeatherDisplay:10.37,2019-11-20 01:30:00,
2019-11-20 02:35:00,32.7,31.4,30.08,SSW,207,0,0,95,0,CLR,FEW,0,WeatherDisplay:10.37,2019-11-20 01:35:00,
2019-11-20 02:40:00,32.7,31.2,30.08,SSW,207,0,0,94,0,CLR,FEW,0,WeatherDisplay:10.37,2019-11-20 01:40:00,
2019-11-20 02:45:00,32.6,31.1,30.08,SSW,207,0,0,94,0,CLR,FEW,0,WeatherDisplay:10.37,2019-11-20 01:45:00,
2019-11-20 02:50:00,32.5,31,30.08,SSW,207,0,0,94,0,CLR,FEW,0,WeatherDisplay:10.37,2019-11-20 01:50:00,
2019-11-20 02:55:00,32.4,30.9,30.07,SSW,207,0,0,94,0,CLR,FEW,0,WeatherDisplay:10.37,2019-11-20 01:55:00,
2019-11-20 03:00:00,32.3,31.1,30.07,SSW,207,0,0,95,0,CLR,FEW,0,WeatherDisplay:10.37,2019-11-20 02:00:00,
2019-11-20 03:05:00,32.3,31,30.07,SSW,207,0,0,95,0,CLR,FEW,0,WeatherDisplay:10.37,2019-11-20 02:05:00,
2019-11-20 03:10:00,32.4,31.1,30.07,SSW,207,0,0,95,0,CLR,FEW,0,WeatherDisplay:10.37,2019-11-20 02:10:00,
2019-11-20 03:15:00,32.5,31.2,30.07,SSW,207,0,0,95,0,CLR,FEW,0,WeatherDisplay:10.37,2019-11-20 02:15:00,
2019-11-20 03:20:00,32.6,31.3,30.08,SSW,207,0,0,95,0,CLR,FEW,0,WeatherDisplay:10.37,2019-11-20 02:20:00,
2019-11-20 03:25:00,32.6,31.3,30.07,SSW,207,0,0,95,0,CLR,FEW,0,WeatherDisplay:10.37,2019-11-20 02:25:00,
2019-11-20 03:30:00,32.6,31.3,30.07,SSW,207,0,0,95,0,CLR,FEW,0,WeatherDisplay:10.37,2019-11-20 02:30:00,
2019-11-20 03:35:01,32.5,31.2,30.07,SSW,207,0,0,95,0,CLR,FEW,0,WeatherDisplay:10.37,2019-11-20 02:35:01,
2019-11-20 03:40:00,32.4,31.1,30.08,SSW,207,0,0,95,0,CLR,FEW,0,WeatherDisplay:10.37,2019-11-20 02:40:00,
2019-11-20 03:45:00,32.3,31,30.07,SSW,207,0,0,95,0,CLR,FEW,0,WeatherDisplay:10.37,2019-11-20 02:45:00,
2019-11-20 03:50:00,32.3,31,30.07,SSW,207,0,0,95,0,CLR,FEW,0,WeatherDisplay:10.37,2019-11-20 02:50:00,
2019-11-20 03:55:00,32.3,31,30.07,SSW,207,0,0,95,0,CLR,FEW,0,WeatherDisplay:10.37,2019-11-20 02:55:00,
2019-11-20 04:00:00,32.3,31,30.08,SSW,207,0,0,95,0,CLR,FEW,0,WeatherDisplay:10.37,2019-11-20 03:00:00,
2019-11-20 04:05:00,32.2,30.9,30.08,SSW,207,0,0,95,0,CLR,FEW,0,WeatherDisplay:10.37,2019-11-20 03:05:00,
2019-11-20 04:10:00,32.2,30.9,30.08,SSW,207,0,0,95,0,CLR,FEW,0,WeatherDisplay:10.37,2019-11-20 03:10:00,
2019-11-20 04:15:00,32.1,30.8,30.08,SSW,207,0,0,95,0,CLR,FEW,0,WeatherDisplay:10.37,2019-11-20 03:15:00,
2019-11-20 04:20:00,32,30.7,30.08,SSW,207,0,0,95,0,CLR,FEW,0,WeatherDisplay:10.37,2019-11-20 03:20:00,
2019-11-20 04:25:00,32,30.7,30.07,SSW,207,0,0,95,0,CLR,FEW,0,WeatherDisplay:10.37,2019-11-20 03:25:00,
2019-11-20 04:30:00,32,30.7,30.07,SSW,207,0,0,95,0,CLR,FEW,0,WeatherDisplay:10.37,2019-11-20 03:30:00,
2019-11-20 04:35:00,31.9,30.6,30.07,SSW,207,0,0,95,0,CLR,FEW,0,WeatherDisplay:10.37,2019-11-20 03:35:00,
2019-11-20 04:40:00,31.8,30.5,30.07,SSW,207,0,0,95,0,CLR,FEW,0,WeatherDisplay:10.37,2019-11-20 03:40:00,
2019-11-20 04:45:00,31.7,30.5,30.07,SSW,207,0,0,95,0,CLR,FEW,0,WeatherDisplay:10.37,2019-11-20 03:45:00,
2019-11-20 04:50:00,31.7,30.4,30.07,SSW,207,0,0,95,0,CLR,FEW,0,WeatherDisplay:10.37,2019-11-20 03:50:00,
2019-11-20 04:55:00,31.6,30.3,30.07,SSW,207,0,0,95,0,CLR,FEW,0,WeatherDisplay:10.37,2019-11-20 03:55:00,
2019-11-20 05:00:00,31.6,30.3,30.07,SSW,207,0,0,95,0,CLR,FEW,0,WeatherDisplay:10.37,2019-11-20 04:00:00,
2019-11-20 05:05:00,31.7,30.4,30.07,SSW,207,0,0,95,0,CLR,FEW,0,WeatherDisplay:10.37,2019-11-20 04:05:00,
2019-11-20 05:10:00,31.8,30.5,30.07,SSW,207,0,0,95,0,CLR,FEW,0,WeatherDisplay:10.37,2019-11-20 04:10:00,
2019-11-20 05:15:00,31.8,30.5,30.07,SSW,207,0,0,95,0,CLR,FEW,0,WeatherDisplay:10.37,2019-11-20 04:15:00,
2019-11-20 05:20:00,31.8,30.5,30.07,SSW,207,0,0,95,0,CLR,FEW,0,WeatherDisplay:10.37,2019-11-20 04:20:00,
2019-11-20 05:25:00,31.8,30.5,30.07,SSW,207,0,0,95,0,CLR,FEW,0,WeatherDisplay:10.37,2019-11-20 04:25:00,
2019-11-20 05:30:00,31.6,30.3,30.07,SSW,207,0,0,95,0,CLR,FEW,0,WeatherDisplay:10.37,2019-11-20 04:30:00,
2019-11-20 05:35:00,31.5,30.2,30.07,SSW,207,0,0,95,0,CLR,FEW,0,WeatherDisplay:10.37,2019-11-20 04:35:00,
2019-11-20 05:40:01,31.4,30.1,30.07,SSW,207,0,0,95,0,CLR,FEW,0,WeatherDisplay:10.37,2019-11-20 04:40:01,
2019-11-20 05:45:00,31.3,30,30.07,SSW,207,0,0,95,0,CLR,FEW,0,WeatherDisplay:10.37,2019-11-20 04:45:00,
2019-11-20 05:50:00,31.3,30,30.07,SSW,207,0,0,95,0,CLR,FEW,0,WeatherDisplay:10.37,2019-11-20 04:50:00,
2019-11-20 05:55:00,31.5,30.2,30.07,SSW,207,0,0,95,0,CLR,FEW,0,WeatherDisplay:10.37,2019-11-20 04:55:00,
2019-11-20 06:00:00,31.6,30.3,30.07,SSW,207,0,0,95,0,CLR,FEW,0,WeatherDisplay:10.37,2019-11-20 05:00:00,
2019-11-20 06:05:00,31.6,30.4,30.07,SSW,207,0,0,95,0,CLR,FEW,0,WeatherDisplay:10.37,2019-11-20 05:05:00,
2019-11-20 06:10:00,31.6,30.3,30.06,SSW,207,0,0,95,0,CLR,FEW,0,WeatherDisplay:10.37,2019-11-20 05:10:00,
2019-11-20 06:15:00,31.6,30.3,30.07,SSW,207,0,0,95,0,CLR,FEW,0,WeatherDisplay:10.37,2019-11-20 05:15:00,
2019-11-20 06:20:01,31.5,30.2,30.07,SSW,207,0,0,95,0,CLR,FEW,0,WeatherDisplay:10.37,2019-11-20 05:20:01,
2019-11-20 06:25:00,31.5,30.2,30.07,SSW,207,0,0,95,0,CLR,FEW,0,WeatherDisplay:10.37,2019-11-20 05:25:00,
2019-11-20 06:30:00,31.5,30.2,30.07,SSW,207,0,0,95,0,CLR,FEW,0,WeatherDisplay:10.37,2019-11-20 05:30:00,
2019-11-20 06:35:00,31.6,30.3,30.07,SSW,207,0,0,95,0,CLR,FEW,0,WeatherDisplay:10.37,2019-11-20 05:35:00,
2019-11-20 06:40:00,31.8,30.5,30.07,SSW,207,0,0,95,0,CLR,FEW,0,WeatherDisplay:10.37,2019-11-20 05:40:00,
2019-11-20 06:45:00,32,30.7,30.07,SSW,207,0,0,95,0,CLR,FEW,0,WeatherDisplay:10.37,2019-11-20 05:45:00,
2019-11-20 06:50:00,32.2,31.2,30.07,SSW,207,0,3,96,0,CLR,FEW,0,WeatherDisplay:10.37,2019-11-20 05:50:00,
2019-11-20 06:55:00,32.5,31.2,30.07,SSW,207,0,2,95,0,CLR,FEW,0,WeatherDisplay:10.37,2019-11-20 05:55:00,
2019-11-20 07:00:00,32.7,31.7,30.07,SSW,207,0,3,96,0,CLR,FEW,0,WeatherDisplay:10.37,2019-11-20 06:00:00,
2019-11-20 07:05:00,32.9,31.9,30.07,SSW,207,0,2,96,0,CLR,FEW,0,WeatherDisplay:10.37,2019-11-20 06:05:00,
2019-11-20 07:10:00,33,32,30.07,SSW,207,0,2,96,0,CLR,FEW,0,WeatherDisplay:10.37,2019-11-20 06:10:00,
2019-11-20 07:15:00,33.1,31.8,30.07,SSW,207,0,0,95,0,CLR,FEW,0,WeatherDisplay:10.37,2019-11-20 06:15:00,
2019-11-20 07:20:00,33,31.7,30.07,SSW,207,0,0,95,0,CLR,FEW,0,WeatherDisplay:10.37,2019-11-20 06:20:00,
2019-11-20 07:25:00,33,31.7,30.07,SSW,207,0,0,95,0,CLR,FEW,0,WeatherDisplay:10.37,2019-11-20 06:25:00,
2019-11-20 07:30:00,32.8,31.6,30.07,SSW,207,0,0,95,0,CLR,FEW,0,WeatherDisplay:10.37,2019-11-20 06:30:00,
2019-11-20 07:35:00,32.7,31.4,30.07,SSW,207,0,0,95,0,CLR,FEW,0,WeatherDisplay:10.37,2019-11-20 06:35:00,
2019-11-20 07:40:00,32.5,31.2,30.07,SSW,207,0,0,95,0,CLR,FEW,0,WeatherDisplay:10.37,2019-11-20 06:40:00,
2019-11-20 07:45:00,32.5,31.2,30.07,SSW,207,0,0,95,0,CLR,FEW,0,WeatherDisplay:10.37,2019-11-20 06:45:00,
2019-11-20 07:50:00,32.4,31.1,30.07,SSW,207,0,0,95,0,CLR,FEW,0,WeatherDisplay:10.37,2019-11-20 06:50:00,
2019-11-20 07:55:00,32.3,31,30.07,SSW,207,0,0,95,0,CLR,FEW,0,WeatherDisplay:10.37,2019-11-20 06:55:00,
2019-11-20 08:00:00,32.3,31,30.07,SSW,207,0,0,95,0,CLR,FEW,0,WeatherDisplay:10.37,2019-11-20 07:00:00,
2019-11-20 08:05:00,32.2,30.9,30.07,SSW,207,0,0,95,0,CLR,FEW,0,WeatherDisplay:10.37,2019-11-20 07:05:00,
2019-11-20 08:10:00,32.3,31,30.07,SSW,207,0,1,95,0,CLR,FEW,0,WeatherDisplay:10.37,2019-11-20 07:10:00,
2019-11-20 08:15:00,32.3,31.1,30.07,SSW,207,0,0,95,0,CLR,FEW,0,WeatherDisplay:10.37,2019-11-20 07:15:00,
2019-11-20 08:20:00,32.5,31.2,30.07,SSW,207,0,0,95,0,CLR,FEW,0,WeatherDisplay:10.37,2019-11-20 07:20:00,
2019-11-20 08:25:00,32.5,31.2,30.06,SSW,207,0,0,95,0,CLR,FEW,0,WeatherDisplay:10.37,2019-11-20 07:25:00,
2019-11-20 08:30:00,32.6,31.3,30.06,SSW,207,0,0,95,0,CLR,FEW,0,WeatherDisplay:10.37,2019-11-20 07:30:00,
2019-11-20 08:35:00,32.7,31.4,30.06,SSW,207,0,0,95,0,CLR,FEW,0,WeatherDisplay:10.37,2019-11-20 07:35:00,
2019-11-20 08:40:00,32.6,31.3,30.06,SSW,207,0,0,95,0,CLR,FEW,0,WeatherDisplay:10.37,2019-11-20 07:40:00,
2019-11-20 08:45:00,32.6,31.3,30.06,SSW,207,0,0,95,0,CLR,FEW,0,WeatherDisplay:10.37,2019-11-20 07:45:00,
2019-11-20 08:50:00,32.5,31.2,30.06,SSW,207,0,0,95,0,CLR,FEW,0,WeatherDisplay:10.37,2019-11-20 07:50:00,
2019-11-20 08:55:00,32.5,31.2,30.06,SSW,207,0,0,95,0,CLR,FEW,0,WeatherDisplay:10.37,2019-11-20 07:55:00,
2019-11-20 09:00:00,32.4,31.1,30.06,SSW,207,0,0,95,0,CLR,FEW,0,WeatherDisplay:10.37,2019-11-20 08:00:00,
2019-11-20 09:05:00,32.3,31,30.06,SSW,207,0,0,95,0,CLR,FEW,0,WeatherDisplay:10.37,2019-11-20 08:05:00,
2019-11-20 09:10:00,32.3,31,30.06,SSW,207,0,0,95,0,CLR,FEW,0,WeatherDisplay:10.37,2019-11-20 08:10:00,
2019-11-20 09:15:00,32.2,31,30.06,SSW,207,0,0,95,0,CLR,FEW,0,WeatherDisplay:10.37,2019-11-20 08:15:00,
2019-11-20 09:20:00,32.4,31.1,30.06,SSW,207,0,0,95,0,CLR,FEW,0,WeatherDisplay:10.37,2019-11-20 08:20:00,
2019-11-20 09:25:00,32.5,31.2,30.06,SSW,207,0,0,95,0,CLR,FEW,0,WeatherDisplay:10.37,2019-11-20 08:25:00,
2019-11-20 09:30:00,32.5,31.2,30.06,SSW,207,0,0,95,0,CLR,FEW,0,WeatherDisplay:10.37,2019-11-20 08:30:00,
2019-11-20 09:35:00,32.5,31.2,30.07,SSW,207,0,0,95,0,CLR,FEW,0,WeatherDisplay:10.37,2019-11-20 08:35:00,
2019-11-20 09:40:00,32.6,31.3,30.07,SSW,207,0,0,95,0,CLR,FEW,0,WeatherDisplay:10.37,2019-11-20 08:40:00,
2019-11-20 09:45:00,33,31.9,30.07,SSW,207,0,0,96,0,CLR,FEW,0,WeatherDisplay:10.37,2019-11-20 08:45:00,
2019-11-20 09:50:00,33.4,32.4,30.07,SSW,207,0,0,96,0,CLR,FEW,0,WeatherDisplay:10.37,2019-11-20 08:50:00,
2019-11-20 09:55:00,33.7,32.6,30.06,SSW,207,0,0,96,0,CLR,FEW,0,WeatherDisplay:10.37,2019-11-20 08:55:00,
2019-11-20 10:00:00,34,33,30.07,SSW,207,0,0,96,0,CLR,FEW,0,WeatherDisplay:10.37,2019-11-20 09:00:00,
2019-11-20 10:05:00,34.3,33.3,30.07,SSW,207,0,0,96,0,CLR,FEW,0,WeatherDisplay:10.37,2019-11-20 09:05:00,
2019-11-20 10:10:00,34.5,33.5,30.07,SSW,207,0,0,96,0,CLR,FEW,0,WeatherDisplay:10.37,2019-11-20 09:10:00,
2019-11-20 10:15:00,34.8,33.8,30.07,SSW,207,0,0,96,0,CLR,FEW,0,WeatherDisplay:10.37,2019-11-20 09:15:00,
2019-11-20 10:20:00,35,33.9,30.07,SSW,207,0,0,96,0,CLR,FEW,0,WeatherDisplay:10.37,2019-11-20 09:20:00,
2019-11-20 10:25:00,35.3,34.3,30.07,SSW,207,0,0,96,0,CLR,FEW,0,WeatherDisplay:10.37,2019-11-20 09:25:00,
2019-11-20 10:30:00,35.6,34.6,30.07,SSW,207,0,0,96,0,CLR,FEW,0,WeatherDisplay:10.37,2019-11-20 09:30:00,
2019-11-20 10:35:00,35.9,34.9,30.07,SSW,207,0,0,96,0,CLR,FEW,0,WeatherDisplay:10.37,2019-11-20 09:35:00,
2019-11-20 10:40:00,36.1,35.1,30.07,SSW,207,0,0,96,0,CLR,FEW,0,WeatherDisplay:10.37,2019-11-20 09:40:00,
2019-11-20 10:45:00,36.3,35.3,30.07,SSW,207,0,0,96,0,CLR,FEW,0,WeatherDisplay:10.37,2019-11-20 09:45:00,
2019-11-20 10:50:00,36.6,35.6,30.07,SSW,207,0,0,96,0,CLR,FEW,0,WeatherDisplay:10.37,2019-11-20 09:50:00,
2019-11-20 10:55:00,36.8,35.8,30.07,SSW,207,0,0,96,0,CLR,FEW,0,WeatherDisplay:10.37,2019-11-20 09:55:00,
2019-11-20 11:00:00,37,36,30.07,SSW,207,0,0,96,0,CLR,FEW,0,WeatherDisplay:10.37,2019-11-20 10:00:00,
2019-11-20 11:05:00,37.2,36.2,30.07,SSW,207,0,0,96,0.008,RA,FEW,0.008,WeatherDisplay:10.37,2019-11-20 10:05:00,
2019-11-20 11:10:00,37.6,36.5,30.07,SSW,207,0,0,96,0,,FEW,0.008,WeatherDisplay:10.37,2019-11-20 10:10:00,
2019-11-20 11:15:00,38,37,30.07,SSW,207,0,0,96,0,CLR,FEW,0.008,WeatherDisplay:10.37,2019-11-20 10:15:00,
2019-11-20 11:20:00,38.5,37.5,30.07,SSW,207,1,4,96,0,CLR,FEW,0.008,WeatherDisplay:10.37,2019-11-20 10:20:00,
2019-11-20 11:25:00,38.9,37.8,30.07,South,186,1,4,96,0,CLR,FEW,0.008,WeatherDisplay:10.37,2019-11-20 10:25:00,
2019-11-20 11:30:00,39.2,38.1,30.07,SSE,155,1,4,96,0,CLR,FEW,0.008,WeatherDisplay:10.37,2019-11-20 10:30:00,
2019-11-20 11:35:00,39.3,38.3,30.07,SE,136,1,4,96,0,CLR,FEW,0.008,WeatherDisplay:10.37,2019-11-20 10:35:00,
2019-11-20 11:40:00,39.6,38.6,30.06,SE,127,2,4,96,0,CLR,FEW,0.008,WeatherDisplay:10.37,2019-11-20 10:40:00,
2019-11-20 11:45:00,39.7,38.7,30.06,SE,124,1,3,96,0,CLR,FEW,0.008,WeatherDisplay:10.37,2019-11-20 10:45:00,
2019-11-20 11:50:00,39.9,38.9,30.06,ESE,123,1,4,96,0,CLR,FEW,0.008,WeatherDisplay:10.37,2019-11-20 10:50:00,
2019-11-20 11:55:00,40.1,39,30.06,ESE,123,0,2,96,0,CLR,FEW,0.008,WeatherDisplay:10.37,2019-11-20 10:55:00,
2019-11-20 12:00:00,40.3,39.3,30.06,ESE,123,1,4,96,0,CLR,FEW,0.008,WeatherDisplay:10.37,2019-11-20 11:00:00,
2019-11-20 12:05:00,40.4,39.4,30.06,ESE,123,1,3,96,0,CLR,FEW,0.008,WeatherDisplay:10.37,2019-11-20 11:05:00,
2019-11-20 12:10:00,40.8,39.5,30.06,SE,124,0,3,95,0,CLR,FEW,0.008,WeatherDisplay:10.37,2019-11-20 11:10:00,
2019-11-20 12:15:00,41.2,40.2,30.05,SE,127,1,3,96,0,CLR,FEW,0.008,WeatherDisplay:10.37,2019-11-20 11:15:00,
2019-11-20 12:20:01,41.7,40.4,30.05,SE,130,1.2,0.3,95,0,CLR,FEW,0.008,WeatherDisplay:10.37,2019-11-20 11:20:01,
2019-11-20 12:25:00,42,40.7,30.05,SE,130,0,1,95,0,CLR,FEW,0.008,WeatherDisplay:10.37,2019-11-20 11:25:00,
2019-11-20 12:30:00,41.9,40.3,30.05,SE,128,1,3,94,0,CLR,FEW,0.008,WeatherDisplay:10.37,2019-11-20 11:30:00,
2019-11-20 12:35:00,41.8,40.2,30.05,SE,126,1,3,94,0,CLR,FEW,0.008,WeatherDisplay:10.37,2019-11-20 11:35:00,
2019-11-20 12:40:00,42.1,40.5,30.05,SE,126,1,2,94,0,CLR,FEW,0.008,WeatherDisplay:10.37,2019-11-20 11:40:00,
2019-11-20 12:45:00,42.4,40.8,30.05,SE,128,1,3,94,0,CLR,FEW,0.008,WeatherDisplay:10.37,2019-11-20 11:45:00,
2019-11-20 12:50:00,42.7,40.8,30.04,SE,131,1,2,93,0,CLR,FEW,0.008,WeatherDisplay:10.37,2019-11-20 11:50:00,
2019-11-20 12:55:01,42.8,40.6,30.04,SE,131,3.5,2.6,92,0,CLR,FEW,0.008,WeatherDisplay:10.37,2019-11-20 11:55:01,
2019-11-20 13:00:00,42.8,40.3,30.04,SE,125,3,6,91,0,CLR,FEW,0.008,WeatherDisplay:10.37,2019-11-20 12:00:00,
2019-11-20 13:05:00,42.8,40.1,30.04,ESE,121,0,3,90,0,CLR,FEW,0.008,WeatherDisplay:10.37,2019-11-20 12:05:00,
2019-11-20 13:10:00,42.8,39.8,30.04,ESE,114,3,6,89,0,CLR,FEW,0.008,WeatherDisplay:10.37,2019-11-20 12:10:00,
2019-11-20 13:15:00,42.8,39.8,30.04,ESE,110,3,6,89,0,CLR,FEW,0.008,WeatherDisplay:10.37,2019-11-20 12:15:00,
2019-11-20 13:20:00,43,39.6,30.04,ESE,109,1,4,88,0,CLR,FEW,0.008,WeatherDisplay:10.37,2019-11-20 12:20:00,
2019-11-20 13:25:00,43.2,39.9,30.04,ESE,108,1,4,88,0,CLR,FEW,0.008,WeatherDisplay:10.37,2019-11-20 12:25:00,
2019-11-20 13:30:02,43.5,40.2,30.03,ESE,108,2.3,1.3,88,0,CLR,FEW,0.008,WeatherDisplay:10.37,2019-11-20 12:30:02,
2019-11-20 13:35:00,43.6,39.7,30.03,ESE,108,2,6,86,0,CLR,FEW,0.008,WeatherDisplay:10.37,2019-11-20 12:35:00,
2019-11-20 13:40:00,43.7,39.8,30.03,ESE,107,2,4,86,0,CLR,FEW,0.008,WeatherDisplay:10.37,2019-11-20 12:40:00,
2019-11-20 13:45:00,43.8,39.6,30.03,ESE,106,1,6,85,0,CLR,FEW,0.008,WeatherDisplay:10.37,2019-11-20 12:45:00,
2019-11-20 13:50:00,44,39.5,30.03,ESE,107,1,6,84,0,CLR,FEW,0.008,WeatherDisplay:10.37,2019-11-20 12:50:00,
2019-11-20 13:55:00,44.1,39.6,30.02,East,101,1,6,84,0,CLR,FEW,0.008,WeatherDisplay:10.37,2019-11-20 12:55:00,
2019-11-20 14:00:00,44.2,39.3,30.02,East,98,2,6,83,0,CLR,FEW,0.008,WeatherDisplay:10.37,2019-11-20 13:00:00,
2019-11-20 14:05:00,44.2,39.4,30.02,East,96,3,6,83,0,CLR,FEW,0.008,WeatherDisplay:10.37,2019-11-20 13:05:00,
2019-11-20 14:10:00,44.1,39.2,30.02,East,85,2,7,83,0,CLR,FEW,0.008,WeatherDisplay:10.37,2019-11-20 13:10:00,
2019-11-20 14:15:00,44,39.2,30.02,East,79,3,7,83,0,CLR,FEW,0.008,WeatherDisplay:10.37,2019-11-20 13:15:00,
2019-11-20 14:20:00,44,39.2,30.02,ENE,77,3,6,83,0,CLR,FEW,0.008,WeatherDisplay:10.37,2019-11-20 13:20:00,
2019-11-20 14:25:00,44,39.2,30.01,ENE,78,1,4,83,0,CLR,FEW,0.008,WeatherDisplay:10.37,2019-11-20 13:25:00,
2019-11-20 14:30:00,44,38.9,30.01,East,82,2,5,82,0,CLR,FEW,0.008,WeatherDisplay:10.37,2019-11-20 13:30:00,
2019-11-20 14:35:00,43.9,38.8,30.01,East,79,2,6,82,0,CLR,FEW,0.008,WeatherDisplay:10.37,2019-11-20 13:35:00,
2019-11-20 14:40:00,43.9,38.4,30.01,ENE,73,3,5,81,0,CLR,FEW,0.008,WeatherDisplay:10.37,2019-11-20 13:40:00,
2019-11-20 14:45:00,43.8,38.3,30.01,ENE,73,2,6,81,0,CLR,FEW,0.008,WeatherDisplay:10.37,2019-11-20 13:45:00,
2019-11-20 14:50:00,43.8,38.3,30.01,East,83,3,8,81,0,CLR,FEW,0.008,WeatherDisplay:10.37,2019-11-20 13:50:00,
2019-11-20 14:55:00,43.7,38.6,30.00,East,85,3,7,82,0,CLR,FEW,0.008,WeatherDisplay:10.37,2019-11-20 13:55:00,
2019-11-20 15:00:00,43.6,38.5,30.00,East,81,2,4,82,0,CLR,FEW,0.008,WeatherDisplay:10.37,2019-11-20 14:00:00,
2019-11-20 15:05:00,43.5,38.7,30.00,East,81,3,5,83,0,CLR,FEW,0.008,WeatherDisplay:10.37,2019-11-20 14:05:00,
2019-11-20 15:10:00,43.4,38.6,30.00,ENE,78,3,8,83,0,CLR,FEW,0.008,WeatherDisplay:10.37,2019-11-20 14:10:00,
2019-11-20 15:15:00,43.2,38.4,30.00,ENE,74,2,6,83,0,CLR,FEW,0.008,WeatherDisplay:10.37,2019-11-20 14:15:00,
2019-11-20 15:20:00,43,38.2,30.00,ENE,71,3,9,83,0,CLR,FEW,0.008,WeatherDisplay:10.37,2019-11-20 14:20:00,
2019-11-20 15:25:00,42.9,38.1,30.00,ENE,69,5,8,83,0,CLR,FEW,0.008,WeatherDisplay:10.37,2019-11-20 14:25:00,
2019-11-20 15:30:00,42.8,38.3,30.00,ENE,68,3,6,84,0,CLR,FEW,0.008,WeatherDisplay:10.37,2019-11-20 14:30:00,
2019-11-20 15:35:00,42.7,38.2,30.00,ENE,64,3,6,84,0,CLR,FEW,0.008,WeatherDisplay:10.37,2019-11-20 14:35:00,
2019-11-20 15:40:00,42.6,38.1,30.00,ENE,64,2,5,84,0,CLR,FEW,0.008,WeatherDisplay:10.37,2019-11-20 14:40:00,
2019-11-20 15:45:00,42.5,38,30.00,ENE,68,2,3,84,0,CLR,FEW,0.008,WeatherDisplay:10.37,2019-11-20 14:45:00,
2019-11-20 15:50:01,42.3,38.1,30.00,ENE,70,3.5,1.9,85,0,CLR,FEW,0.008,WeatherDisplay:10.37,2019-11-20 14:50:01,
2019-11-20 15:55:00,42.2,38,30.00,ENE,71,2,4,85,0,CLR,FEW,0.008,WeatherDisplay:10.37,2019-11-20 14:55:00,
2019-11-20 16:00:00,42.1,38.2,30.00,ENE,68,5,6,86,0,CLR,FEW,0.008,WeatherDisplay:10.37,2019-11-20 15:00:00,
2019-11-20 16:05:00,41.9,38,29.99,ENE,70,3,6,86,0,CLR,FEW,0.008,WeatherDisplay:10.37,2019-11-20 15:05:00,
2019-11-20 16:10:00,41.7,38.1,29.99,ENE,68,3,6,87,0,CLR,FEW,0.008,WeatherDisplay:10.37,2019-11-20 15:10:00,
2019-11-20 16:15:00,41.4,37.8,29.99,ENE,66,5,9,87,0,CLR,FEW,0.008,WeatherDisplay:10.37,2019-11-20 15:15:00,
2019-11-20 16:20:00,41,37.7,29.99,ENE,70,3,8,88,0,CLR,FEW,0.008,WeatherDisplay:10.37,2019-11-20 15:20:00,
2019-11-20 16:25:00,40.7,37.4,29.99,ENE,72,3,5,88,0,CLR,FEW,0.008,WeatherDisplay:10.37,2019-11-20 15:25:00,
2019-11-20 16:30:00,40.4,37.4,29.99,ENE,72,2,5,89,0,CLR,FEW,0.008,WeatherDisplay:10.37,2019-11-20 15:30:00,
2019-11-20 16:35:00,40.2,37.2,29.99,ENE,71,2,6,89,0,CLR,FEW,0.008,WeatherDisplay:10.37,2019-11-20 15:35:00,
2019-11-20 16:40:00,40,37,29.99,ENE,69,3,5,89,0,CLR,FEW,0.008,WeatherDisplay:10.37,2019-11-20 15:40:00,
2019-11-20 16:45:00,39.8,36.8,29.98,ENE,69,2,4,89,0,CLR,FEW,0.008,WeatherDisplay:10.37,2019-11-20 15:45:00,
2019-11-20 16:50:00,39.5,36.8,29.98,ENE,69,3,5,90,0,CLR,FEW,0.008,WeatherDisplay:10.37,2019-11-20 15:50:00,
2019-11-20 16:55:00,39.4,36.7,29.98,ENE,69,3,6,90,0,CLR,FEW,0.008,WeatherDisplay:10.37,2019-11-20 15:55:00,
2019-11-20 17:00:00,39.2,36.5,29.98,ENE,69,2,6,90,0,CLR,FEW,0.008,WeatherDisplay:10.37,2019-11-20 16:00:00,
2019-11-20 17:05:00,39.1,36.7,29.98,ENE,69,2,5,91,0,CLR,FEW,0.008,WeatherDisplay:10.37,2019-11-20 16:05:00,
2019-11-20 17:10:00,38.9,36.5,29.98,ENE,70,2,4,91,0,CLR,FEW,0.008,WeatherDisplay:10.37,2019-11-20 16:10:00,
2019-11-20 17:15:00,38.8,36.4,29.98,ENE,72,1,5,91,0,CLR,FEW,0.008,WeatherDisplay:10.37,2019-11-20 16:15:00,
2019-11-20 17:20:00,38.6,36.2,29.98,ENE,72,3,6,91,0,CLR,FEW,0.008,WeatherDisplay:10.37,2019-11-20 16:20:00,
2019-11-20 17:25:00,38.5,36.1,29.98,ENE,72,3,8,91,0,CLR,FEW,0.008,WeatherDisplay:10.37,2019-11-20 16:25:00,
2019-11-20 17:30:00,38.3,36.2,29.98,ENE,67,5,12,92,0,CLR,FEW,0.008,WeatherDisplay:10.37,2019-11-20 16:30:00,
2019-11-20 17:35:00,37.9,35.8,29.98,ENE,65,6,10,92,0,CLR,FEW,0.008,WeatherDisplay:10.37,2019-11-20 16:35:00,
2019-11-20 17:40:00,37.8,35.7,29.98,ENE,66,3,6,92,0,CLR,FEW,0.008,WeatherDisplay:10.37,2019-11-20 16:40:00,
2019-11-20 17:45:00,37.9,36.1,29.98,ENE,71,5,8,93,0,CLR,FEW,0.008,WeatherDisplay:10.37,2019-11-20 16:45:00,
2019-11-20 17:50:00,38.1,36.3,29.98,ENE,72,2,6,93,0,CLR,FEW,0.008,WeatherDisplay:10.37,2019-11-20 16:50:00,
2019-11-20 17:55:00,38.3,36.7,29.98,ENE,70,3,9,94,0,CLR,FEW,0.008,WeatherDisplay:10.37,2019-11-20 16:55:00,
2019-11-20 18:00:00,38.5,37,29.98,ENE,69,5,9,94,0,CLR,FEW,0.008,WeatherDisplay:10.37,2019-11-20 17:00:00,
2019-11-20 18:05:00,38.7,37.1,29.98,ENE,69,5,12,94,0,CLR,FEW,0.008,WeatherDisplay:10.37,2019-11-20 17:05:00,
2019-11-20 18:10:00,38.8,37.2,29.98,ENE,65,5,12,94,0,CLR,FEW,0.008,WeatherDisplay:10.37,2019-11-20 17:10:00,
2019-11-20 18:15:00,38.8,37.2,29.98,ENE,66,3,9,94,0,CLR,FEW,0.008,WeatherDisplay:10.37,2019-11-20 17:15:00,
2019-11-20 18:20:00,38.7,37.1,29.98,ENE,72,5,8,94,0,CLR,FEW,0.008,WeatherDisplay:10.37,2019-11-20 17:20:00,
2019-11-20 18:25:00,38.6,37.1,29.98,ENE,76,3,8,94,0,CLR,FEW,0.008,WeatherDisplay:10.37,2019-11-20 17:25:00,
2019-11-20 18:30:00,38.5,36.9,29.98,East,81,5,8,94,0,CLR,FEW,0.008,WeatherDisplay:10.37,2019-11-20 17:30:00,
2019-11-20 18:35:00,38,36.4,29.98,East,92,5,8,94,0,CLR,FEW,0.008,WeatherDisplay:10.37,2019-11-20 17:35:00,
2019-11-20 18:40:00,37.4,35.8,29.98,East,92,6,9,94,0,CLR,FEW,0.008,WeatherDisplay:10.37,2019-11-20 17:40:00,
2019-11-20 18:45:00,36.8,35.2,29.98,East,81,5,9,94,0,CLR,FEW,0.008,WeatherDisplay:10.37,2019-11-20 17:45:00,
2019-11-20 18:50:00,36.4,34.8,29.98,East,82,3,8,94,0,CLR,FEW,0.008,WeatherDisplay:10.37,2019-11-20 17:50:00,
2019-11-20 18:55:00,36.2,34.6,29.98,ENE,66,4,3.2,94,0,CLR,FEW,0.008,WeatherDisplay:10.37,2019-11-20 17:55:00,
2019-11-20 19:00:00,36.1,34.5,29.97,ENE,74,3,8,94,0,CLR,FEW,0.008,WeatherDisplay:10.37,2019-11-20 18:00:00,
2019-11-20 19:05:00,35.9,34.3,29.98,ENE,74,3,8,94,0,CLR,FEW,0.008,WeatherDisplay:10.37,2019-11-20 18:05:00,
2019-11-20 19:10:00,35.8,34.5,29.97,ENE,78,3,8,95,0,CLR,FEW,0.008,WeatherDisplay:10.37,2019-11-20 18:10:00,
2019-11-20 19:15:00,35.6,34.4,29.97,East,82,6,10,95,0,CLR,FEW,0.008,WeatherDisplay:10.37,2019-11-20 18:15:00,
2019-11-20 19:20:00,35.5,34.2,29.97,East,79,3,8,95,0,CLR,FEW,0.008,WeatherDisplay:10.37,2019-11-20 18:20:00,
2019-11-20 19:25:00,35.4,34.1,29.97,ENE,77,5,8,95,0,CLR,FEW,0.008,WeatherDisplay:10.37,2019-11-20 18:25:00,
2019-11-20 19:30:01,35.2,33.9,29.97,East,89,11.5,6.1,95,0,CLR,FEW,0.008,WeatherDisplay:10.37,2019-11-20 18:30:01,
2019-11-20 19:35:00,35,33.7,29.97,East,83,6,13,95,0,CLR,FEW,0.008,WeatherDisplay:10.37,2019-11-20 18:35:00,
2019-11-20 19:40:01,35,33.7,29.97,East,96,5.8,3.7,95,0,CLR,FEW,0.008,WeatherDisplay:10.37,2019-11-20 18:40:01,
2019-11-20 19:45:00,35,33.7,29.97,ENE,72,5,9,95,0,CLR,FEW,0.008,WeatherDisplay:10.37,2019-11-20 18:45:00,
2019-11-20 19:50:00,35.1,33.8,29.97,ENE,71,5,9,95,0,CLR,FEW,0.008,WeatherDisplay:10.37,2019-11-20 18:50:00,
2019-11-20 19:55:00,35.2,33.9,29.97,East,79,3,7,95,0,CLR,FEW,0.008,WeatherDisplay:10.37,2019-11-20 18:55:00,
2019-11-20 20:00:00,35.2,33.9,29.97,East,79,3,12,95,0,CLR,FEW,0.008,WeatherDisplay:10.37,2019-11-20 19:00:00,
2019-11-20 20:05:00,35.3,34,29.97,East,80,5,10,95,0,CLR,FEW,0.008,WeatherDisplay:10.37,2019-11-20 19:05:00,
2019-11-20 20:10:00,35.2,33.9,29.97,East,84,5,10,95,0,CLR,FEW,0.008,WeatherDisplay:10.37,2019-11-20 19:10:00,
2019-11-20 20:15:00,35.2,33.9,29.97,East,85,3,8,95,0,CLR,FEW,0.008,WeatherDisplay:10.37,2019-11-20 19:15:00,
2019-11-20 20:20:00,35.3,34,29.97,East,92,5,9,95,0,CLR,FEW,0.008,WeatherDisplay:10.37,2019-11-20 19:20:00,
2019-11-20 20:25:00,35,33.7,29.97,ESE,102,11.5,6.9,95,0,CLR,FEW,0.008,WeatherDisplay:10.37,2019-11-20 19:25:00,
2019-11-20 20:30:00,34.9,33.6,29.97,East,85,5,10,95,0,CLR,FEW,0.008,WeatherDisplay:10.37,2019-11-20 19:30:00,
2019-11-20 20:35:00,34.8,33.5,29.97,East,79,5,10,95,0,CLR,FEW,0.008,WeatherDisplay:10.37,2019-11-20 19:35:00,
2019-11-20 20:40:01,34.6,33.3,29.97,ENE,70,12,5.6,95,0,CLR,FEW,0.008,WeatherDisplay:10.37,2019-11-20 19:40:01,
2019-11-20 20:45:00,34.4,33.2,29.97,ENE,71,5,12,95,0,CLR,FEW,0.008,WeatherDisplay:10.37,2019-11-20 19:45:00,
2019-11-20 20:50:00,34.3,33,29.97,ENE,71,6,12,95,0,CLR,FEW,0.008,WeatherDisplay:10.37,2019-11-20 19:50:00,
2019-11-20 20:55:00,34.2,32.9,29.96,ENE,64,5,8,95,0,CLR,FEW,0.008,WeatherDisplay:10.37,2019-11-20 19:55:00,
2019-11-20 21:00:00,34.3,33,29.97,ENE,76,5,8,95,0,CLR,FEW,0.008,WeatherDisplay:10.37,2019-11-20 20:00:00,
2019-11-20 21:05:00,34.3,33,29.97,ENE,76,5,12,95,0,CLR,FEW,0.008,WeatherDisplay:10.37,2019-11-20 20:05:00,
2019-11-20 21:10:00,34.3,33,29.97,East,82,2,10,95,0,CLR,FEW,0.008,WeatherDisplay:10.37,2019-11-20 20:10:00,
2019-11-20 21:15:00,34.3,33.3,29.97,East,91,5,8,96,0,CLR,FEW,0.008,WeatherDisplay:10.37,2019-11-20 20:15:00,
2019-11-20 21:20:00,34.4,33.3,29.97,East,87,5,12,96,0,CLR,FEW,0.008,WeatherDisplay:10.37,2019-11-20 20:20:00,
2019-11-20 21:25:00,34.4,33.4,29.96,East,82,3,10,96,0,CLR,FEW,0.008,WeatherDisplay:10.37,2019-11-20 20:25:00,
2019-11-20 21:30:00,34.4,33.4,29.97,East,90,3,10,96,0,CLR,FEW,0.008,WeatherDisplay:10.37,2019-11-20 20:30:00,
2019-11-20 21:35:00,34.4,33.4,29.97,East,95,3,12,96,0,CLR,FEW,0.008,WeatherDisplay:10.37,2019-11-20 20:35:00,
2019-11-20 21:40:00,34.5,33.5,29.96,East,89,3,10,96,0,CLR,FEW,0.008,WeatherDisplay:10.37,2019-11-20 20:40:00,
2019-11-20 21:45:00,34.7,33.6,29.96,East,86,3,7,96,0,CLR,FEW,0.008,WeatherDisplay:10.37,2019-11-20 20:45:00,
2019-11-20 21:50:00,34.8,33.8,29.96,East,80,5,12,96,0,CLR,FEW,0.008,WeatherDisplay:10.37,2019-11-20 20:50:00,
2019-11-20 21:55:00,34.8,33.8,29.96,ENE,78,6,10,96,0,CLR,FEW,0.008,WeatherDisplay:10.37,2019-11-20 20:55:00,
2019-11-20 22:00:00,34.9,33.9,29.96,East,90,2,8,96,0,CLR,FEW,0.008,WeatherDisplay:10.37,2019-11-20 21:00:00,
2019-11-20 22:05:00,35.1,34,29.96,ENE,78,3,8,96,0,CLR,FEW,0.008,WeatherDisplay:10.37,2019-11-20 21:05:00,
2019-11-20 22:10:00,35.1,34.1,29.95,East,83,2,8,96,0,CLR,FEW,0.008,WeatherDisplay:10.37,2019-11-20 21:10:00,
2019-11-20 22:15:00,35.2,34.2,29.96,East,87,5,9,96,0,CLR,FEW,0.008,WeatherDisplay:10.37,2019-11-20 21:15:00,
2019-11-20 22:20:00,35.2,34.2,29.96,East,80,3,8,96,0,CLR,FEW,0.008,WeatherDisplay:10.37,2019-11-20 21:20:00,
2019-11-20 22:25:00,35.3,34.3,29.96,ENE,77,5,10,96,0,CLR,FEW,0.008,WeatherDisplay:10.37,2019-11-20 21:25:00,
2019-11-20 22:30:00,35.3,34.3,29.95,East,80,5,10,96,0,CLR,FEW,0.008,WeatherDisplay:10.37,2019-11-20 21:30:00,
2019-11-20 22:35:00,35.3,34.3,29.95,East,80,6,10,96,0,CLR,FEW,0.008,WeatherDisplay:10.37,2019-11-20 21:35:00,
2019-11-20 22:40:00,35.2,34.2,29.95,East,98,3,9,96,0,CLR,FEW,0.008,WeatherDisplay:10.37,2019-11-20 21:40:00,
2019-11-20 22:45:00,35.3,34.3,29.95,East,92,3,7,96,0,CLR,FEW,0.008,WeatherDisplay:10.37,2019-11-20 21:45:00,
2019-11-20 22:50:00,35.3,34.3,29.95,East,97,6,12,96,0,CLR,FEW,0.008,WeatherDisplay:10.37,2019-11-20 21:50:00,
2019-11-20 22:55:00,35.3,34.3,29.95,East,84,5,12,96,0,CLR,FEW,0.008,WeatherDisplay:10.37,2019-11-20 21:55:00,
2019-11-20 23:00:00,35.4,34.4,29.95,East,86,3,7,96,0,CLR,FEW,0.008,WeatherDisplay:10.37,2019-11-20 22:00:00,
2019-11-20 23:05:00,35.4,34.4,29.95,East,92,3,9,96,0,CLR,FEW,0.008,WeatherDisplay:10.37,2019-11-20 22:05:00,
2019-11-20 23:10:00,35.5,34.5,29.95,East,87,3,7,96,0,CLR,FEW,0.008,WeatherDisplay:10.37,2019-11-20 22:10:00,
2019-11-20 23:15:00,35.6,34.6,29.94,East,80,2,8,96,0,CLR,FEW,0.008,WeatherDisplay:10.37,2019-11-20 22:15:00,
2019-11-20 23:20:00,35.6,34.6,29.94,East,81,3,9,96,0,CLR,FEW,0.008,WeatherDisplay:10.37,2019-11-20 22:20:00,
2019-11-20 23:25:00,35.7,34.6,29.94,ENE,77,3,8,96,0,CLR,FEW,0.008,WeatherDisplay:10.37,2019-11-20 22:25:00,
2019-11-20 23:30:00,35.7,34.7,29.94,East,80,2,6,96,0,CLR,FEW,0.008,WeatherDisplay:10.37,2019-11-20 22:30:00,
2019-11-20 23:35:00,35.7,34.7,29.94,East,89,3,9,96,0,CLR,FEW,0.008,WeatherDisplay:10.37,2019-11-20 22:35:00,
2019-11-20 23:40:00,35.7,34.7,29.94,East,88,3,8,96,0,CLR,FEW,0.008,WeatherDisplay:10.37,2019-11-20 22:40:00,
2019-11-20 23:45:00,35.7,34.7,29.94,East,80,3,8,96,0,CLR,FEW,0.008,WeatherDisplay:10.37,2019-11-20 22:45:00,
2019-11-20 23:50:00,35.7,34.7,29.94,East,81,5,8,96,0,CLR,FEW,0.008,WeatherDisplay:10.37,2019-11-20 22:50:00,
2019-11-20 23:55:00,35.7,34.7,29.94,East,82,2,9,96,0,CLR,FEW,0.008,WeatherDisplay:10.37,2019-11-20 22:55:00,